Location: Bidart
(43.4376°N, 1.5913°W)
Time: 11:45:43
(UTC+00:00)

Cosmos 1538 Rocket - Pass Details

Date: 19 May 2025
Orbit: 749 x 787 km, 74.0° (Epoch: 11 June)

Event Time Altitude Azimuth Distance (km) Brightness Sun altitude
Exits shadow 22:50:44 46° 92° (E) 1,007 4.4 -24.4°
Drops below altitude 10° 22:55:19 10° 32° (NNE) 2,278 6.9 -24.7°
Sets 22:57:45 0° 26° (NNE) 3,206 7.9 -24.8°
